Погода в Печерске

Россия / Смоленская область     54°09′15″N   32°15′38″E
темп.,
°C
ветер,
м/с
пор.,
м/с
влажн.,
%
обл.,
%
осадки,
мм/ч
давл.,
гПа
погр.,
м
21 апреля, ср
ср2100:00+3св3589100 0.0 1011444
03:00+3ссв3591100 0.0 1010353
06:00+3ссз2588100 0.1 1008428
09:00+5сз357478 0.1 1008634
12:00+8з4560100 0.0 10081435
15:00+8зюз566954 0.1 10091024
18:00+9юз466554 0.4 10081048
21:00+5юз378166 0.5 1010127
22 апреля, чт
чт2200:00+5ю379015 0.1 1010142
03:00+4ю4109555 0.1 1011230
06:00+4ю489833 0.0 1011203
09:00+9ююз578141 0.0 1012471
12:00+13ююз686747 0.6 10111192
15:00+15ююз795512 2.5 10101774
18:00+14ююз59595 0.9 10101295
21:00+10ююз4107496 1.3 1011215
23 апреля, пт
пт2300:00+9юз4992100 1.6 1011599
03:00+7юз4995100 1.9 1011292
06:00+4з5991100 0.7 1013589
09:00+4ююз4588100 3.2 1014514
12:00+8юз5762100 0.1 10141507
15:00+8юз5757100 0.1 10131482
18:00+8зюз3557100 0.1 10131460
21:00+6зсз2472100 0.3 1013116
24 апреля, сб
сб2400:00+4сз2478100 0.0 101293
03:00+3зсз3780100 0.0 1011178
06:00+1з3682100 0.0 1011162
09:00+4зсз57645 0.0 1011764
12:00+7з6845100 0.1 10102211
15:00+7з895698 0.3 10101638
18:00+6з79628 0.4 10101424
21:00+4з51074100 0.5 1011680
25 апреля, вс
вс2500:00+2з5108269 0.0 1011584
03:000зюз511915 0.0 1011389
06:00−1зюз511915 0.0 1011490
09:00+2зюз7971100 0.0 10101053
12:00+3зюз71069100 0.1 10111223
15:00+5зюз71065100 0.8 10101577
18:00+5зюз69635 0.8 10101546
21:00+1юз4108339 1.0 1010262